Regional Weather Roundup
Issued by NWS Grand Forks, ND

Home | Current Version | Previous Version | Text Only | Print | Product List | Glossary Off
Versions: 1 2 3 4 5 6 7 8 9 10 11 12 13 14 15 16 17 18 19 20 21 22 23 24 25 26 27 28 29 30 31 32 33 34 35 36 37 38 39 40 41 42 43 44 45 46 47 48 49 50

525
ASUS43 KFGF 231610
RWRFGF
PRAIRIE TO PINES  WEATHER ROUNDUP
NATIONAL WEATHER SERVICE EASTERN NORTH DAKOTA/GRAND FORKS ND
1100 AM CDT TUE AUG 23 2016

 **SATELLITE DATA USED TO AUGMENT SKY COVER AT AUTOMATED STATIONS**
 *****  WEATHER ACROSS EASTERN NORTH DAKOTA  *****

CITY           SKY/WX    TMP DP  RH WIND       PRES   REMARKS
GRAND FORKS    CLOUDY    77  63  61 S23       29.62F
GRAND FRKS AFB CLOUDY    77  65  66 S20       29.62F
GRAND FRKS NWS   N/A     75 N/A N/A S14         N/A
DEVILS LAKE    SUNNY     75  66  73 SW13      29.62R
FARGO          SUNNY     78  64  61 S14       29.70S
WAHPETON ARPT  SUNNY     77  61  57 S15       29.74S
$$

 ***** WEATHER ACROSS CENTRAL AND WESTERN NORTH DAKOTA  *****

CITY           SKY/WX    TMP DP  RH WIND       PRES   REMARKS
BISMARCK       MOSUNNY   75  65  70 NW17G28   29.67R
MINOT          LGT RAIN  76  41  28 W24G38    29.68R
JAMESTOWN      CLOUDY    72  66  81 S15       29.63F
MINOT AFB      CLOUDY    74  41  30 NW31G43   29.67R
GARRISON         N/A     74  44  34 NW23G29   29.72R
WILLISTON      CLOUDY    74  37  26 NW21      29.83R
DICKINSON      SUNNY     72  31  22 NW29G36   29.82R
HETTINGER      SUNNY     74  35  24 NW26G41   29.82R
$$

 *****  OTHER AIRPORT OBSERVATIONS IN OUR AREA  *****

CITY           SKY/WX    TMP DP  RH WIND       PRES   REMARKS
WALHALLA       NOT AVBL
GRAFTON AIRPOR FAIR      75  66  73 S14G24    29.63F
VALLEY CITY AR FAIR      75  66  73 S16G23    29.69S
CANDO          NOT AVBL
CAVALIER APRT  FAIR      75  66  73 S14G22    29.59F
GWINNER        FAIR      79  66  65 S13       29.71S
ROLLA          CLOUDY    72  70  94 N22       29.64R
 ***** THE ABOVE OBSERVATIONS ARE NON NWS ARE NOT QUALITY
       CONTROLLED AND MAY MIS-REPORT RAIN FOR SNOW...
$$

  *****  WEATHER ACROSS NORTHERN MINNESOTA  *****

CITY           SKY/WX    TMP DP  RH WIND       PRES   REMARKS
FLAG ISLAND    CLOUDY    70  64  83 E3        29.72F HAZE
WARROAD        CLOUDY    73  70  88 E14       29.73S
ROSEAU         CLOUDY    75  66  73 SE13      29.70S
HALLOCK        SUNNY     77  66  69 S20G28    29.63R
THF RVR FALLS  PTSUNNY   75  64  68 S8        29.71R
BAUDETTE       CLOUDY    74  65  73 SE9       29.75F
WASKISH        CLOUDY    73  64  73 SE10      29.75F
CROOKSTON      PTSUNNY   73  63  68 SW13      29.68S
STEPHEN NDAWN    N/A     77  64  65 S12         N/A
GREENBUSH NDAW   N/A     79  64  61 S15         N/A
$$
  *****  WEATHER ACROSS CENTRAL AND WEST MINNESOTA  *****

CITY           SKY/WX    TMP DP  RH WIND       PRES   REMARKS
FOSSTON        MOSUNNY   77  63  61 S20G26    29.71F
BEMIDJI        CLOUDY    76  64  65 S10       29.78F
PARK RAPIDS    SUNNY     78  62  57 S13       29.81F
ELBOW LAKE     FAIR      75  65  70 S20       29.79S
WADENA         SUNNY     75  64  69 S12       29.81S
DETROIT LAKES  SUNNY     77  63  61 S12       29.78S
MOORHEAD       SUNNY     77  64  65 S15       29.72F
FERGUS FALLS     N/A     75  64  69 S16G23    29.77F
MORRIS MN      SUNNY     81  64  57 S16       29.79R
STAPLES        NOT AVBL
$$
  *****  WEATHER ELSEWHERE ACROSS MINNESOTA  *****

CITY           SKY/WX    TMP DP  RH WIND       PRES   REMARKS
DULUTH         MOSUNNY   75  63  66 S15G22    29.91S
INTRNTL FALLS  MOSUNNY   75  65  70 VRB7      29.82S
ELY            CLOUDY    73  61  64 S10G17    29.89R
CLOQUET        MOSUNNY   73  61  64 S12       29.91R
WHEATON        SUNNY     79  66  65 S9G22     29.76S
BRAINERD       MOSUNNY   75  63  66 S13G23    29.85F
HIBBING        MOSUNNY   73  62  68 S10       29.87S
ALEXANDRIA     SUNNY     76  64  66 S12       29.84S
SAINT CLOUD    SUNNY     75  65  70 S15G23    29.88S
MINNEAPOLIS    MOSUNNY   77  62  59 S12       29.94S
$$

  *****  WEATHER ACROSS SOUTH DAKOTA  *****

CITY           SKY/WX    TMP DP  RH WIND       PRES   REMARKS
SIOUX FALLS    PTSUNNY   74  67  78 S20G25    29.86S
BROOKINGS      MOSUNNY   75  64  68 S20G26    29.83S
WATERTOWN      SUNNY     78  65  63 S17G23    29.78F
HURON          SUNNY     79  63  57 S16G28    29.74S
SISSETON         N/A     81  65  58 S15G22    29.72S
ABERDEEN       SUNNY     80  63  55 S17G30    29.68S
MITCHELL       SUNNY     78  64  61 S18G28    29.79R
PIERRE         SUNNY     82  61  48 SW15      29.67R
MOBRIDGE       CLOUDY    83  61  47 SW13      29.63S
RAPID CITY     SUNNY     73  36  25 N32G44    29.87R
$$

  *****  SOME WEATHER IN NEARBY STATES *****

CITY           SKY/WX    TMP DP  RH WIND       PRES   REMARKS
GLASGOW MT     MOSUNNY   64  43  46 W21G31    29.90S
GREAT FALLS MT SUNNY     65  31  28 W17G26    30.03S
CHEYENNE WY    SUNNY     76  20  12 NW17G31   30.07R
SCOTTSBLUFF NE SUNNY     74  47  38 W8        29.96R
OMAHA NE       CLOUDY    73  67  81 SE16      29.95S
DES MOINES IA  MOSUNNY   79  68  69 S15       30.03S
DAVENPORT IA   SUNNY     76  62  62 S15       30.16S
CHICAGO IL     MOSUNNY   76  60  57 S15       30.21F
EAU CLAIRE WI  SUNNY     77  62  59 S13       30.01S
LA CROSSE WI   PTSUNNY   78  69  73 S13       30.06S
$$

  *****  SOME NATIONAL WEATHER *****

CITY           SKY/WX    TMP DP  RH WIND       PRES   REMARKS
LA GUARDIA NY  MOSUNNY   79  48  33 N6        30.30F
RALEIGH NC     PTSUNNY   82  60  47 CALM      30.32R
ATLANTA GA     MOSUNNY   87  68  52 CALM      30.28S HX  90
NEW ORLEANS LA MOSUNNY   92  74  55 VRB5      30.21S HX 101
OKLAHOMA CITY  TSTM      76  72  87 S15       30.08R
ALBUQUERQUE NM MOSUNNY   68  55  63 CALM      30.25R
SALT LAKE CITY PTSUNNY   78  43  28 S3        30.08R
LOS ANGELES CA MOSUNNY   70  61  73 S5        30.03R
BOISE ID       SUNNY     61  32  33 CALM      30.12S
SEATTLE WA     MOSUNNY   62  52  69 NE5       30.21R
$$

*** WEATHER ACROSS MANITOBA...SASKATCHEWAN AND ONTARIO ***
                ***ONTARIO***

CITY           SKY/WX    TMP DP  RH WIND       PRES   REMARKS
GERALDTON      PTSUNNY   77  68  73 NW6       29.92R
THUNDER BAY    PTSUNNY   77  64  65 E3        29.89F
SIOUX LOOKOUT  CLOUDY    73  66  78 SE3       29.86R
TORONTO        MOSUNNY   79  55  44 SW14G24   30.23S
BIG TROUT LK   SUNNY     59  50  72 N6        29.94F
PICKLE LAKE    PTSUNNY   68  57  68 E10       29.89F
DRYDEN         PTSUNNY   72  64  78 SE5       29.85R
KENORA         CLOUDY    68  64  88 SE3       29.83R
$$
                *** MANITOBA***

CITY           SKY/WX    TMP DP  RH WIND       PRES   REMARKS
BRANDON        PTSUNNY   64  61  88 NE18G26   29.61F THUNDER
DAUPHIN        CLOUDY    64  63  94 W8        29.71S
ISLAND LAKE    PTSUNNY   63  52  67 E3        29.92R
PILOT MOUND      N/A     72  64  78 W7          N/A
THE PAS        CLOUDY    63  54  72 E12G25    29.76F
THOMPSON       PTSUNNY   63  48  59 E3        29.97R
WINNIPEG       PTSUNNY   77  66  69 SE16      29.62F
LYNN LAKE      CLOUDY    61  46  59 MISG      30.00R
CHURCHILL      MOSUNNY   59  48  67 NW16G23   29.91R
GILLAM         PTSUNNY   63  46  55 NE5       29.95R
$$
                ***SASKATCHEWAN***

CITY           SKY/WX    TMP DP  RH WIND       PRES   REMARKS
ESTEVAN        PTSUNNY   63  46  55 NW17G29   29.78R
KINDERSLEY     LGT RAIN  52  50  93 W14G21    29.71R
LLOYDMINSTER   TSTM      55  54  94 N14G23    29.77R
PRINCE ALBERT  LGT RAIN  59  57  94 NE6       29.70R
REGINA         PTSUNNY   61  46  59 W16       29.77S
YORKTON        SUNNY     63  55  77 W7        29.73R
N. BATTLEFORD  MOSUNNY   59  52  77 NE8       29.69R
LA RONGE       LGT RAIN  59  50  72 NE18      29.86S
SASKATOON      PTSUNNY   57  46  67 S6        29.68S
SWIFT CURRENT  CLOUDY    57  48  72 W22G31    29.75R
$$
NOTE: THESE ARE AUTOMATED STATIONS WITH LIMITED QUALITY CONTROL
      "FAIR" INDICATES FEW OR NO CLOUDS BELOW 12,000 FEET WITH NO
      SIGNIFICANT WEATHER AND/OR OBSTRUCTIONS TO VISIBILITY.
      SKY/WX - SKY CONDITION AND SIGNIFICANT WEATHER.
      TMP - AIR TEMPERATURE.    DP   - DEWPOINT TEMPERATURE.
      RH  - RELATIVE HUMIDITY.  PRES - PRESSURE.
      HX  - HEAT INDEX.         WCI  - WIND CHILL INDEX.
$




USA.gov is the U.S. government's official web portal to all federal, state and local government web resources and services.